STARLETTE               
1 07646U 75010A   19260.80238391 -.00000139  00000-0  16053-5 0  9992
2 07646  49.8247 111.5491 0205728 202.2019 156.9866 13.82306525253658
DIAMANT B-P4 R/B        
1 07647U 75010B   19260.64249346 -.00000109  00000-0  27794-4 0  9997
2 07647  49.8253 310.9211 0218289  29.8262 331.4869 13.81810134250217
DIAMANT B-P4 DEB        
1 07654U 75010C   19260.59459164 -.00000148  00000-0  12470-5 0  9999
2 07654  49.8454  31.7611 0175262  78.1980 283.8518 13.94226727266195
DIAMANT B-P4 DEB        
1 07655U 75010D   19259.67912254 -.00000062  00000-0  55948-4 0  9992
2 07655  49.8022  69.4402 0181606 186.5635 173.2879 13.93301955264414
DIAMANT B-P4 DEB        
1 07659U 75010E   19260.49854626 -.00000053  00000-0  62564-4 0  9998
2 07659  49.8158 270.1870 0189235 321.7236  37.0355 13.92266988261816